Location: �perlecques
(50.8057°N, 2.1521°E)
Time: 23:24:42
(UTC+00:00)

SL-4 R/B - Pass Details

Date: 09 April 2020
Orbit: 428 x 666 km, 51.6° (Epoch: 30 May)

Event Time Altitude Azimuth Distance (km) Brightness Sun altitude
Rises 20:40:56 0° 269° (W) 2,392 6.1 -18.1°
Reaches altitude 10° 20:43:02 10° 271° (W) 1,528 5.0 -18.4°
Maximum altitude 20:46:26 76° 356° (N) 453 1.6 -18.8°
Enters shadow 20:47:13 50° 70° (ENE) 565 1.8 -18.9°
